STARLINK-35194

Last updated on Sun Oct 19 2025 00:02:05 GMT+0000 (Coordinated Universal Time)

1 65671U 25211V 25291.07736902 .00210476 00000+0 36746-2 0 9996 2 65671 97.6033 333.1910 0001849 192.8688 167.2516 15.49912427 5567
UTC large
Height (km)
Speed (km/s)
/
Latitude / Longitude
Inclination (degrees)
Orbital Period (minutes)
Azimuth
Elevation
Range (km)
Doppler Factor

Next 0 passes for location: London (51.5072 / 0.1276)

Sorry there are no passes over London.